| time (UTC) | temp F | wind direction | speed knots | gust knots | rain 1hr in | rain 24hr in | rain mn in | humidity % | barometer mb |
| 20260503213046 | 74 | 302 | 1.7 | 10.4 | 0.00 | 0.00 | 0.00 | 40 | 993.2 |
| 20260503211541 | 72 | 214 | 6.1 | 11.3 | 0.00 | 0.00 | 0.00 | 39 | 993.2 |
| 20260503210040 | 72 | 232 | 7.8 | 12.2 | 0.00 | 0.00 | 0.00 | 41 | 993.3 |
| 20260503203052 | 71 | 247 | 5.2 | 11.3 | 0.00 | 0.00 | 0.00 | 42 | 993.8 |
| 20260503201536 | 71 | 243 | 7.0 | 17.4 | 0.00 | 0.00 | 0.00 | 42 | 994.1 |
| 20260503200034 | 72 | 210 | 7.8 | 13.0 | 0.00 | 0.00 | 0.00 | 41 | 993.9 |
| 20260503193030 | 71 | 234 | 8.7 | 13.9 | 0.00 | 0.00 | 0.00 | 44 | 994.2 |
| 20260503191530 | 70 | 229 | 4.3 | 13.9 | 0.00 | 0.00 | 0.00 | 47 | 994.4 |
| 20260503190023 | 69 | 225 | 10.4 | 16.5 | 0.00 | 0.00 | 0.00 | 47 | 994.8 |
| 20260503183019 | 69 | 221 | 7.8 | 16.5 | 0.00 | 0.00 | 0.00 | 49 | 995.2 |
| 20260503181515 | 68 | 237 | 10.4 | 16.5 | 0.00 | 0.00 | 0.00 | 50 | 995.4 |
| 20260503180013 | 67 | 215 | 8.7 | 18.2 | 0.00 | 0.00 | 0.00 | 52 | 996.0 |
| 20260503173009 | 68 | 215 | 2.6 | 10.4 | 0.00 | 0.00 | 0.00 | 55 | 996.8 |
| 20260503171505 | 66 | 230 | 4.3 | 11.3 | 0.00 | 0.00 | 0.00 | 57 | 996.9 |
| 20260503140107 | 53 | 278 | 0.9 | 6.1 | 0.00 | 0.00 | 0.00 | 77 | 998.0 |
| 20260503081519 | 48 | 111 | 4.3 | 6.1 | 0.00 | 0.00 | 0.00 | 86 | 995.9 |
| 20260503071508 | 50 | 106 | 3.5 | 7.0 | 0.00 | 0.00 | 0.00 | 87 | 996.2 |
| 20260503060132 | 51 | 111 | 2.6 | 6.1 | 0.00 | 0.00 | 0.00 | 86 | 996.0 |
| 20260503054657 | 52 | 117 | 3.5 | 7.0 | 0.00 | 0.00 | 0.00 | 86 | 996.2 |
| 20260503053059 | 52 | 116 | 3.5 | 5.2 | 0.00 | 0.00 | 0.00 | 85 | 996.2 |
| 20260503051556 | 53 | 117 | 3.5 | 6.1 | 0.00 | 0.00 | 0.00 | 85 | 996.0 |
| 20260503050053 | 53 | 117 | 2.6 | 5.2 | 0.00 | 0.00 | 0.00 | 84 | 996.0 |
| 20260503044651 | 54 | 116 | 3.5 | 5.2 | 0.00 | 0.00 | 0.00 | 82 | 996.0 |
| 20260503043050 | 55 | 142 | 1.7 | 4.3 | 0.00 | 0.00 | 0.00 | 81 | 995.8 |
| 20260503041547 | 55 | 127 | 1.7 | 4.3 | 0.00 | 0.00 | 0.00 | 77 | 995.8 |
| 20260503040056 | 57 | 115 | 3.5 | 6.1 | 0.00 | 0.00 | 0.00 | 74 | 995.9 |
| 20260503034644 | 56 | 145 | 3.5 | 7.8 | 0.00 | 0.00 | 0.00 | 71 | 995.6 |
| 20260503033041 | 57 | 207 | 2.6 | 5.2 | 0.00 | 0.00 | 0.00 | 74 | 995.2 |
| 20260503031536 | 58 | 170 | 0.0 | 4.3 | 0.00 | 0.00 | 0.00 | 71 | 995.0 |
| 20260503030044 | 60 | 159 | 4.3 | 6.1 | 0.00 | 0.00 | 0.00 | 66 | 994.8 |
| 20260503024632 | 63 | 178 | 3.5 | 8.7 | 0.00 | 0.00 | 0.00 | 51 | 994.4 |
| 20260503023032 | 62 | 205 | 4.3 | 8.7 | 0.00 | 0.00 | 0.00 | 49 | 993.5 |
| 20260503021530 | 60 | 225 | 0.0 | 2.6 | 0.00 | 0.00 | 0.00 | 58 | 993.2 |
| 20260503020030 | 62 | 225 | 0.0 | 1.7 | 0.00 | 0.00 | 0.00 | 57 | 992.9 |
| 20260503014631 | 64 | 225 | 0.0 | 1.7 | 0.00 | 0.00 | 0.00 | 50 | 992.3 |
| 20260503013035 | 66 | 225 | 0.9 | 3.5 | 0.00 | 0.00 | 0.00 | 42 | 992.2 |
| 20260503011530 | 67 | 254 | 1.7 | 7.0 | 0.00 | 0.00 | 0.00 | 41 | 992.0 |
| 20260503010035 | 68 | 286 | 0.0 | 4.3 | 0.00 | 0.00 | 0.00 | 40 | 992.2 |
| 20260503004629 | 70 | 238 | 0.0 | 6.1 | 0.00 | 0.00 | 0.00 | 39 | 991.9 |
| 20260503003031 | 69 | 269 | 0.9 | 5.2 | 0.00 | 0.00 | 0.00 | 40 | 991.8 |
| 20260503001529 | 70 | 258 | 0.0 | 7.0 | 0.00 | 0.00 | 0.00 | 38 | 991.9 |
| 20260503000028 | 71 | 300 | 0.0 | 5.2 | 0.00 | 0.00 | 0.00 | 38 | 991.6 |
| 20260502234628 | 72 | 227 | 0.9 | 5.2 | 0.00 | 0.00 | 0.00 | 36 | 991.6 |
| 20260502233027 | 72 | 224 | 1.7 | 11.3 | 0.00 | 0.00 | 0.00 | 37 | 991.7 |
| 20260502231526 | 71 | 240 | 2.6 | 8.7 | 0.00 | 0.00 | 0.00 | 37 | 991.7 |
| 20260502230029 | 71 | 238 | 1.7 | 8.7 | 0.00 | 0.00 | 0.00 | 37 | 992.0 |
| 20260502224622 | 72 | 212 | 1.7 | 9.6 | 0.00 | 0.00 | 0.00 | 37 | 992.3 |
| 20260502223021 | 72 | 236 | 4.3 | 7.0 | 0.00 | 0.00 | 0.00 | 35 | 992.3 |
| 20260502221519 | 71 | 242 | 2.6 | 13.0 | 0.00 | 0.00 | 0.00 | 38 | 992.5 |
| 20260502220018 | 72 | 223 | 1.7 | 7.0 | 0.00 | 0.00 | 0.00 | 37 | 992.4 |